Location: Calvera
(42.3882°N, 0.6137°E)
Time: 19:10:38
(UTC+00:00)

Meteor 2-15 - Pass Details

Date: 28 October 2020
Orbit: 935 x 956 km, 82.5° (Epoch: 22 November)

Event Time Altitude Azimuth Distance (km) Brightness Sun altitude
Rises 05:46:32 0° 349° (N) 3,620 7.3 -8.0°
Reaches altitude 10° 05:49:03 10° 348° (NNW) 2,668 6.6 -7.5°
Maximum altitude 05:55:07 75° 265° (W) 974 4.4 -6.4°
Drops below altitude 10° 06:01:08 10° 181° (S) 2,639 7.0 -5.3°
Sets 06:03:36 0° 179° (S) 3,578 7.7 -4.9°
